Вернуться в каталог

STARLINK-34348

АктивенСвязьSSO
NORAD 64152·PAYLOAD·🇺🇸 United States

Запущен May 27, 2025 с Vandenberg Space Force Base

Loading…

Ближайшие Пролёты (ближайшие 24 часа)

TLE

СвежийSource: CelesTrak SupGP

Эпоха: Sep 14, 2026, 21:16 UTC

1 64152C 25112G   26257.88659722 -.00006285  00000+0 -19524-3 0  2571
2 64152  97.2830 305.0029 0001181  96.1761 345.8207 15.33419531    14

Отслеживайте STARLINK-34348 в реальном времени с AllMySat

Download on the App Store